Track YAOGAN-30 D now! 10-day predictions YAOGAN-30 D is classified as:
1 43028U 17075A 25199.90925939 .00002391 00000-0 18973-3 0 9995 2 43028 34.9938 138.4189 0003126 269.7105 90.3244 15.00192874417125